AZU721 OEJN-OKKK

Flight info

Callsign AZU721
Flight time 1h 53m
Altitude 37000
Route EGREP B417 HFR A788 KFR
Aircraft A20N/M-SDE2E3FGHIRWXY/LB1

Departure

Time 2026-04-28 12:07
Airport King Abdulaziz International Airport (OEJN)

Arrival

Time 2026-04-28 14:00
Airport Kuwait International Airport (OKKK)
Time Latitude Longitude Altitude Speed Heading
2026-04-28 11:37 21.66319 39.17130 44 ft 0 kts 103°
2026-04-28 11:55 21.66322 39.17117 44 ft 4 kts 103°
2026-04-28 11:55 21.66328 39.17089 41 ft 4 kts 103°
2026-04-28 11:55 21.66335 39.17061 41 ft 4 kts 106°
2026-04-28 11:56 21.66344 39.17034 39 ft 4 kts 123°
2026-04-28 11:56 21.66361 39.17016 39 ft 4 kts 178°
2026-04-28 11:56 21.66368 39.17016 39 ft 1 kts 194°
2026-04-28 11:57 21.66368 39.17015 39 ft 0 kts 194°
2026-04-28 11:58 21.66365 39.17017 39 ft 0 kts 170°
2026-04-28 11:58 21.66356 39.17024 39 ft 4 kts 143°
2026-04-28 11:58 21.66345 39.17043 39 ft 1 kts 116°
2026-04-28 11:59 21.66335 39.17060 41 ft 4 kts 131°
2026-04-28 11:59 21.66320 39.17061 39 ft 0 kts 206°
2026-04-28 12:00 21.66306 39.17053 42 ft 0 kts 211°
2026-04-28 12:01 21.66294 39.17044 42 ft 4 kts 214°
2026-04-28 12:01 21.66258 39.17012 41 ft 9 kts 221°
2026-04-28 12:01 21.66203 39.16958 39 ft 12 kts 223°
2026-04-28 12:01 21.66140 39.16891 39 ft 10 kts 231°
2026-04-28 12:02 21.66120 39.16816 38 ft 8 kts 280°
2026-04-28 12:02 21.66165 39.16767 38 ft 11 kts 333°
2026-04-28 12:02 21.66201 39.16697 37 ft 13 kts 259°
2026-04-28 12:02 21.66193 39.16667 34 ft 2 kts 250°
2026-04-28 12:03 21.66187 39.16648 35 ft 0 kts 250°
2026-04-28 12:04 21.66187 39.16647 35 ft 0 kts 250°
2026-04-28 12:04 21.66186 39.16644 35 ft 2 kts 250°
2026-04-28 12:04 21.66176 39.16613 34 ft 7 kts 251°
2026-04-28 12:05 21.66166 39.16584 35 ft 5 kts 250°
2026-04-28 12:05 21.66152 39.16540 35 ft 8 kts 250°
2026-04-28 12:05 21.66140 39.16490 34 ft 7 kts 275°
2026-04-28 12:05 21.66165 39.16467 34 ft 0 kts 338°
2026-04-28 12:06 21.66369 39.16386 35 ft 68 kts 341°
2026-04-28 12:06 21.67018 39.16133 36 ft 128 kts 341°
2026-04-28 12:06 21.68000 39.15751 76 ft 169 kts 340°
2026-04-28 12:07 21.69076 39.15362 760 ft 159 kts 342°
2026-04-28 12:07 21.70107 39.14914 1302 ft 168 kts 336°
2026-04-28 12:07 21.71195 39.14376 1841 ft 173 kts 334°
2026-04-28 12:07 21.72341 39.13849 2272 ft 188 kts 340°
2026-04-28 12:08 21.73651 39.13368 2696 ft 209 kts 341°
2026-04-28 12:08 21.75108 39.12850 3112 ft 232 kts 341°
2026-04-28 12:08 21.76714 39.12258 3672 ft 254 kts 340°
2026-04-28 12:08 21.78416 39.11609 4436 ft 263 kts 340°
2026-04-28 12:09 21.80136 39.10941 5363 ft 267 kts 340°
2026-04-28 12:09 21.81903 39.10249 6047 ft 274 kts 340°
2026-04-28 12:09 21.83691 39.09546 6143 ft 273 kts 339°
2026-04-28 12:09 21.85484 39.08841 6146 ft 273 kts 339°
2026-04-28 12:10 21.87267 39.08139 6145 ft 273 kts 339°
2026-04-28 12:10 21.89057 39.07436 6145 ft 273 kts 339°
2026-04-28 12:10 21.90807 39.06654 6145 ft 273 kts 335°
2026-04-28 12:10 21.92526 39.05827 6145 ft 273 kts 335°
2026-04-28 12:11 21.94270 39.04992 6145 ft 273 kts 335°
2026-04-28 12:11 21.95988 39.04173 6145 ft 273 kts 336°
2026-04-28 12:11 21.97735 39.03340 6145 ft 273 kts 336°
2026-04-28 12:11 21.99471 39.02512 6145 ft 273 kts 336°
2026-04-28 12:12 22.01192 39.01691 6148 ft 273 kts 335°
2026-04-28 12:12 22.02931 39.00859 6317 ft 276 kts 335°
2026-04-28 12:12 22.04702 39.00015 7035 ft 277 kts 335°
2026-04-28 12:12 22.06434 38.99185 8027 ft 277 kts 335°
2026-04-28 12:13 22.08223 38.98324 8914 ft 281 kts 335°
2026-04-28 12:13 22.10032 38.97455 9784 ft 285 kts 336°
2026-04-28 12:13 22.11871 38.96579 10558 ft 294 kts 335°
2026-04-28 12:13 22.13847 38.95714 10877 ft 317 kts 345°
2026-04-28 12:14 22.16092 38.95524 11180 ft 338 kts
2026-04-28 12:14 22.18335 38.96336 11886 ft 343 kts 30°
2026-04-28 12:14 22.20228 38.97935 12641 ft 348 kts 41°
2026-04-28 12:14 22.22043 38.99696 13004 ft 351 kts 42°
2026-04-28 12:15 22.23854 39.01470 13127 ft 352 kts 42°
2026-04-28 12:15 22.25645 39.03221 13145 ft 352 kts 42°
2026-04-28 12:15 22.27467 39.04998 13145 ft 351 kts 42°
2026-04-28 12:15 22.29162 39.06913 13145 ft 352 kts 54°
2026-04-28 12:16 22.30347 39.09218 13145 ft 352 kts 69°
2026-04-28 12:16 22.30991 39.11739 13144 ft 352 kts 77°
2026-04-28 12:16 22.31544 39.14325 13145 ft 352 kts 77°
2026-04-28 12:16 22.32102 39.16908 13145 ft 352 kts 77°
2026-04-28 12:17 22.32656 39.19457 13145 ft 352 kts 77°
2026-04-28 12:17 22.33220 39.22044 13145 ft 352 kts 77°
2026-04-28 12:17 22.33779 39.24611 13145 ft 352 kts 77°
2026-04-28 12:17 22.34343 39.27202 13145 ft 352 kts 77°
2026-04-28 12:18 22.34902 39.29773 13150 ft 352 kts 77°
2026-04-28 12:18 22.35460 39.32341 13144 ft 352 kts 77°
2026-04-28 12:18 22.36020 39.34922 13145 ft 352 kts 77°
2026-04-28 12:18 22.36581 39.37508 13145 ft 352 kts 77°
2026-04-28 12:19 22.37136 39.40069 13145 ft 353 kts 77°
2026-04-28 12:19 22.37696 39.42653 13145 ft 353 kts 77°
2026-04-28 12:19 22.38249 39.45208 13145 ft 353 kts 77°
2026-04-28 12:19 22.38808 39.47792 13145 ft 353 kts 77°
2026-04-28 12:20 22.39367 39.50380 13145 ft 353 kts 77°
2026-04-28 12:20 22.39927 39.52972 13150 ft 353 kts 77°
2026-04-28 12:20 22.40480 39.55532 13239 ft 357 kts 77°
2026-04-28 12:20 22.41047 39.58155 13944 ft 358 kts 77°
2026-04-28 12:21 22.41620 39.60803 14740 ft 360 kts 77°
2026-04-28 12:21 22.42193 39.63457 15430 ft 365 kts 77°
2026-04-28 12:21 22.42767 39.66119 16105 ft 368 kts 77°
2026-04-28 12:21 22.43353 39.68838 16776 ft 372 kts 77°
2026-04-28 12:22 22.43945 39.71585 17429 ft 376 kts 77°
2026-04-28 12:22 22.44533 39.74320 18039 ft 380 kts 77°
2026-04-28 12:22 22.45137 39.77129 18635 ft 385 kts 77°
2026-04-28 12:22 22.45750 39.79962 19180 ft 390 kts 75°
2026-04-28 12:23 22.46739 39.82710 19761 ft 394 kts 61°
2026-04-28 12:23 22.48303 39.85126 20358 ft 395 kts 47°
2026-04-28 12:23 22.50334 39.87181 20929 ft 399 kts 41°
2026-04-28 12:23 22.52416 39.89153 21487 ft 402 kts 41°
2026-04-28 12:24 22.54539 39.91170 21981 ft 407 kts 41°
2026-04-28 12:24 22.56657 39.93189 22578 ft 407 kts 41°
2026-04-28 12:24 22.58755 39.95191 23247 ft 406 kts 41°
2026-04-28 12:24 22.60889 39.97230 23715 ft 410 kts 41°
2026-04-28 12:25 22.63049 39.99295 24181 ft 414 kts 41°
2026-04-28 12:25 22.65218 40.01371 24361 ft 425 kts 40°
2026-04-28 12:25 22.67455 40.03512 24778 ft 430 kts 40°
2026-04-28 12:25 22.69705 40.05664 25258 ft 432 kts 40°
2026-04-28 12:26 22.71965 40.07828 25693 ft 435 kts 40°
2026-04-28 12:26 22.74247 40.10013 26107 ft 438 kts 40°
2026-04-28 12:26 22.76518 40.12191 26516 ft 441 kts 40°
2026-04-28 12:26 22.78826 40.14404 26914 ft 444 kts 40°
2026-04-28 12:27 22.81147 40.16631 27301 ft 446 kts 40°
2026-04-28 12:27 22.83485 40.18875 27672 ft 449 kts 40°
2026-04-28 12:27 22.85830 40.21128 28035 ft 451 kts 40°
2026-04-28 12:27 22.88164 40.23370 28389 ft 453 kts 41°
2026-04-28 12:28 22.90528 40.25644 28727 ft 456 kts 41°
2026-04-28 12:28 22.92909 40.27933 29049 ft 458 kts 41°
2026-04-28 12:28 22.95299 40.30233 29369 ft 460 kts 41°
2026-04-28 12:28 22.97697 40.32542 29677 ft 461 kts 41°
2026-04-28 12:29 23.01710 40.36408 30180 ft 465 kts 41°
2026-04-28 12:29 23.04961 40.39542 30581 ft 467 kts 41°
2026-04-28 12:29 23.07387 40.41883 30862 ft 470 kts 41°
2026-04-28 12:30 23.09009 40.43448 31070 ft 471 kts 41°
2026-04-28 12:30 23.11479 40.45833 31431 ft 471 kts 41°
2026-04-28 12:30 23.14708 40.48953 31921 ft 470 kts 41°
2026-04-28 12:30 23.16332 40.50522 32172 ft 469 kts 41°
2026-04-28 12:31 23.19578 40.53661 32644 ft 468 kts 41°
2026-04-28 12:31 23.21224 40.55254 32871 ft 468 kts 41°
2026-04-28 12:31 23.23632 40.57585 33213 ft 467 kts 41°
2026-04-28 12:31 23.26065 40.59941 33544 ft 466 kts 41°
2026-04-28 12:32 23.28442 40.62344 33854 ft 466 kts 45°
2026-04-28 12:32 23.30657 40.64877 34147 ft 465 kts 45°
2026-04-28 12:32 23.32899 40.67426 34435 ft 465 kts 45°
2026-04-28 12:32 23.35146 40.69972 34709 ft 464 kts 45°
2026-04-28 12:33 23.37388 40.72513 34982 ft 464 kts 45°
2026-04-28 12:33 23.39597 40.75021 35239 ft 463 kts 45°
2026-04-28 12:33 23.41829 40.77557 35485 ft 463 kts 45°
2026-04-28 12:33 23.44062 40.80096 35738 ft 462 kts 45°
2026-04-28 12:34 23.46287 40.82628 35968 ft 462 kts 45°
2026-04-28 12:34 23.48512 40.85161 36182 ft 462 kts 45°
2026-04-28 12:34 23.50710 40.87665 36378 ft 462 kts 45°
2026-04-28 12:34 23.52945 40.90212 36573 ft 462 kts 45°
2026-04-28 12:35 23.55174 40.92754 36758 ft 462 kts 45°
2026-04-28 12:35 23.57372 40.95262 36933 ft 462 kts 45°
2026-04-28 12:35 23.59592 40.97796 36998 ft 462 kts 45°
2026-04-28 12:36 23.64021 41.02855 37000 ft 460 kts 45°
2026-04-28 12:36 23.68451 41.07922 37000 ft 461 kts 45°
2026-04-28 12:37 23.72703 41.12788 37000 ft 460 kts 45°
2026-04-28 12:37 23.77104 41.17830 37001 ft 461 kts 46°
2026-04-28 12:38 23.81514 41.22887 37001 ft 460 kts 46°
2026-04-28 12:38 23.85947 41.27977 37000 ft 460 kts 46°
2026-04-28 12:39 23.90343 41.33028 36999 ft 460 kts 46°
2026-04-28 12:39 23.94767 41.38119 36999 ft 460 kts 46°
2026-04-28 12:40 23.98402 41.42305 36999 ft 460 kts 46°
2026-04-28 12:40 24.02826 41.47405 36998 ft 460 kts 46°
2026-04-28 12:41 24.07210 41.52464 36999 ft 460 kts 46°
2026-04-28 12:41 24.11609 41.57547 36998 ft 460 kts 46°
2026-04-28 12:42 24.16019 41.62647 36998 ft 460 kts 46°
2026-04-28 12:42 24.20410 41.67731 36997 ft 460 kts 46°
2026-04-28 12:43 24.24824 41.72847 36998 ft 460 kts 46°
2026-04-28 12:43 24.29210 41.77936 36998 ft 460 kts 46°
2026-04-28 12:44 24.32712 41.81989 36997 ft 460 kts 44°
2026-04-28 12:44 24.37469 41.86696 36998 ft 460 kts 40°
2026-04-28 12:45 24.41698 41.90808 36999 ft 460 kts 41°
2026-04-28 12:45 24.46490 41.95478 37001 ft 460 kts 41°
2026-04-28 12:46 24.51288 42.00156 37002 ft 460 kts 41°
2026-04-28 12:46 24.56045 42.04798 37003 ft 460 kts 41°
2026-04-28 12:47 24.60839 42.09482 37004 ft 460 kts 41°
2026-04-28 12:47 24.65386 42.13928 37006 ft 460 kts 41°
2026-04-28 12:48 24.70172 42.18614 37007 ft 460 kts 41°
2026-04-28 12:48 24.74946 42.23292 37007 ft 460 kts 41°
2026-04-28 12:49 24.79667 42.27924 37005 ft 460 kts 41°
2026-04-28 12:49 24.84458 42.32629 37005 ft 460 kts 41°
2026-04-28 12:50 24.89210 42.37301 37005 ft 460 kts 41°
2026-04-28 12:50 24.93986 42.42004 37004 ft 460 kts 41°
2026-04-28 12:51 24.98729 42.46680 37002 ft 459 kts 41°
2026-04-28 12:51 25.03362 42.51253 37001 ft 459 kts 41°
2026-04-28 12:52 25.08067 42.55901 37001 ft 459 kts 41°
2026-04-28 12:52 25.12799 42.60581 36999 ft 459 kts 41°
2026-04-28 12:53 25.17573 42.65308 36999 ft 459 kts 41°
2026-04-28 12:53 25.22304 42.69997 36998 ft 459 kts 41°
2026-04-28 12:54 25.26969 42.74626 36998 ft 459 kts 41°
2026-04-28 12:54 25.31691 42.79316 36999 ft 459 kts 41°
2026-04-28 12:55 25.36420 42.84018 37000 ft 456 kts 41°
2026-04-28 12:55 25.41142 42.88719 37003 ft 457 kts 41°
2026-04-28 12:56 25.45841 42.93403 37003 ft 456 kts 41°
2026-04-28 12:56 25.50549 42.98100 37003 ft 456 kts 41°
2026-04-28 12:57 25.55274 43.02817 37004 ft 456 kts 41°
2026-04-28 12:57 25.60002 43.07540 37006 ft 456 kts 41°
2026-04-28 12:58 25.64713 43.12250 37008 ft 456 kts 41°
2026-04-28 12:58 25.69412 43.16954 37009 ft 456 kts 41°
2026-04-28 12:59 25.74114 43.21666 37008 ft 456 kts 41°
2026-04-28 12:59 25.78821 43.26389 37009 ft 456 kts 41°
2026-04-28 13:00 25.83539 43.31131 37009 ft 456 kts 42°
2026-04-28 13:00 25.88218 43.35842 37008 ft 456 kts 42°
2026-04-28 13:01 25.92927 43.40590 37007 ft 456 kts 42°
2026-04-28 13:01 25.97581 43.45286 37006 ft 456 kts 42°
2026-04-28 13:02 26.02292 43.50047 37004 ft 455 kts 42°
2026-04-28 13:02 26.07004 43.54810 37003 ft 455 kts 42°
2026-04-28 13:03 26.11670 43.59534 37002 ft 455 kts 42°
2026-04-28 13:03 26.16360 43.64287 37001 ft 455 kts 42°
2026-04-28 13:04 26.21018 43.69014 37001 ft 455 kts 42°
2026-04-28 13:04 26.25687 43.73759 37001 ft 455 kts 42°
2026-04-28 13:05 26.30339 43.78538 37000 ft 455 kts 45°
2026-04-28 13:05 26.34802 43.83581 37001 ft 455 kts 45°
2026-04-28 13:06 26.39239 43.88571 37001 ft 455 kts 45°
2026-04-28 13:06 26.43696 43.93593 37002 ft 455 kts 45°
2026-04-28 13:07 26.48162 43.98635 37002 ft 455 kts 45°
2026-04-28 13:07 26.52592 44.03643 37005 ft 455 kts 45°
2026-04-28 13:08 26.57027 44.08662 37005 ft 455 kts 45°
2026-04-28 13:08 26.61492 44.13722 37005 ft 455 kts 45°
2026-04-28 13:09 26.65942 44.18770 37006 ft 455 kts 45°
2026-04-28 13:09 26.70396 44.23828 37008 ft 455 kts 45°
2026-04-28 13:10 26.74830 44.28870 37009 ft 455 kts 45°
2026-04-28 13:10 26.79268 44.33922 37007 ft 455 kts 45°
2026-04-28 13:11 26.83695 44.38967 37007 ft 455 kts 45°
2026-04-28 13:11 26.88141 44.44040 37006 ft 455 kts 45°
2026-04-28 13:12 26.92559 44.49087 37007 ft 455 kts 45°
2026-04-28 13:12 26.97007 44.54174 37005 ft 455 kts 45°
2026-04-28 13:13 27.01447 44.59259 37005 ft 455 kts 45°
2026-04-28 13:13 27.05850 44.64312 37005 ft 455 kts 45°
2026-04-28 13:14 27.10273 44.69394 37004 ft 455 kts 45°
2026-04-28 13:14 27.13953 44.73626 37003 ft 455 kts 45°
2026-04-28 13:15 27.18370 44.78713 37002 ft 455 kts 45°
2026-04-28 13:15 27.23503 44.84631 37002 ft 454 kts 45°
2026-04-28 13:16 27.27204 44.88903 37001 ft 454 kts 45°
2026-04-28 13:16 27.31598 44.93981 37002 ft 454 kts 45°
2026-04-28 13:17 27.36008 44.99084 37001 ft 454 kts 45°
2026-04-28 13:17 27.40396 45.04168 37001 ft 454 kts 45°
2026-04-28 13:18 27.44811 45.09288 37002 ft 454 kts 45°
2026-04-28 13:18 27.49229 45.14419 37003 ft 454 kts 45°
2026-04-28 13:19 27.53613 45.19516 37004 ft 455 kts 45°
2026-04-28 13:19 27.58122 45.24523 37004 ft 454 kts 43°
2026-04-28 13:20 27.62743 45.29321 37004 ft 454 kts 42°
2026-04-28 13:20 27.67414 45.34135 37005 ft 454 kts 42°
2026-04-28 13:21 27.72070 45.38946 37006 ft 454 kts 42°
2026-04-28 13:21 27.76748 45.43796 37007 ft 454 kts 42°
2026-04-28 13:22 27.81112 45.48330 37008 ft 454 kts 42°
2026-04-28 13:22 27.85759 45.53163 37008 ft 454 kts 42°
2026-04-28 13:23 27.90279 45.58160 37007 ft 454 kts 46°
2026-04-28 13:23 27.94661 45.63302 37007 ft 454 kts 45°
2026-04-28 13:24 27.99059 45.68453 37006 ft 454 kts 45°
2026-04-28 13:24 28.03420 45.73574 37006 ft 454 kts 46°
2026-04-28 13:25 28.07808 45.78736 37005 ft 454 kts 46°
2026-04-28 13:25 28.12173 45.83877 37005 ft 454 kts 46°
2026-04-28 13:26 28.16554 45.89044 37005 ft 454 kts 46°
2026-04-28 13:26 28.20938 45.94220 37004 ft 454 kts 46°
2026-04-28 13:27 28.25312 45.99391 37003 ft 454 kts 46°
2026-04-28 13:27 28.29664 46.04543 37003 ft 453 kts 46°
2026-04-28 13:28 28.33765 46.09978 37000 ft 453 kts 57°
2026-04-28 13:28 28.36310 46.16466 36995 ft 453 kts 75°
2026-04-28 13:29 28.37416 46.23519 36994 ft 453 kts 81°
2026-04-28 13:29 28.38434 46.30566 36996 ft 454 kts 81°
2026-04-28 13:30 28.39428 46.37523 36998 ft 454 kts 81°
2026-04-28 13:30 28.40444 46.44604 37001 ft 454 kts 81°
2026-04-28 13:31 28.41959 46.55246 37006 ft 455 kts 81°
2026-04-28 13:31 28.42893 46.61859 37008 ft 455 kts 81°
2026-04-28 13:32 28.43893 46.68959 37010 ft 455 kts 81°
2026-04-28 13:32 28.44889 46.76063 37011 ft 455 kts 81°
2026-04-28 13:33 28.45876 46.83206 37010 ft 455 kts 82°
2026-04-28 13:33 28.46854 46.90286 37010 ft 455 kts 81°
2026-04-28 13:34 28.47823 46.97393 37007 ft 455 kts 81°
2026-04-28 13:34 28.48812 47.04465 37007 ft 454 kts 81°
2026-04-28 13:35 28.49804 47.11592 37006 ft 454 kts 81°
2026-04-28 13:35 28.50295 47.15133 36842 ft 452 kts 81°
2026-04-28 13:35 28.50776 47.18626 36305 ft 453 kts 81°
2026-04-28 13:36 28.51261 47.22181 35500 ft 457 kts 81°
2026-04-28 13:36 28.51746 47.25779 34492 ft 463 kts 81°
2026-04-28 13:36 28.52242 47.29443 33440 ft 470 kts 81°
2026-04-28 13:36 28.52746 47.33138 32491 ft 473 kts 81°
2026-04-28 13:37 28.53245 47.36805 31547 ft 475 kts 81°
2026-04-28 13:37 28.53751 47.40539 30599 ft 476 kts 81°
2026-04-28 13:37 28.54256 47.44281 29593 ft 478 kts 81°
2026-04-28 13:37 28.54755 47.47989 28755 ft 477 kts 81°
2026-04-28 13:38 28.55255 47.51714 28071 ft 471 kts 81°
2026-04-28 13:38 28.55741 47.55348 27454 ft 463 kts 81°
2026-04-28 13:38 28.56219 47.58926 26896 ft 446 kts 81°
2026-04-28 13:38 28.56677 47.62369 26345 ft 432 kts 81°
2026-04-28 13:39 28.57087 47.65679 25802 ft 423 kts 84°
2026-04-28 13:39 28.57223 47.69043 25251 ft 425 kts 89°
2026-04-28 13:39 28.57284 47.72406 24699 ft 423 kts 88°
2026-04-28 13:39 28.57361 47.75745 24165 ft 421 kts 88°
2026-04-28 13:40 28.57441 47.79035 23619 ft 419 kts 88°
2026-04-28 13:40 28.57520 47.82340 23069 ft 415 kts 88°
2026-04-28 13:40 28.57596 47.85611 22513 ft 411 kts 88°
2026-04-28 13:40 28.57669 47.88856 21851 ft 409 kts 88°
2026-04-28 13:41 28.57740 47.92092 21163 ft 408 kts 88°
2026-04-28 13:41 28.57818 47.95319 20500 ft 407 kts 86°
2026-04-28 13:41 28.58156 47.98467 19833 ft 405 kts 78°
2026-04-28 13:41 28.58892 48.01553 19158 ft 403 kts 70°
2026-04-28 13:42 28.59892 48.04536 18482 ft 401 kts 69°
2026-04-28 13:42 28.60932 48.07469 17804 ft 399 kts 63°
2026-04-28 13:42 28.62512 48.10032 17240 ft 392 kts 45°
2026-04-28 13:42 28.64625 48.11874 16892 ft 381 kts 28°
2026-04-28 13:43 28.67091 48.12901 16290 ft 376 kts
2026-04-28 13:43 28.69706 48.12996 15570 ft 376 kts 351°
2026-04-28 13:43 28.72168 48.12141 14951 ft 372 kts 332°
2026-04-28 13:43 28.74350 48.10566 14263 ft 368 kts 324°
2026-04-28 13:44 28.76442 48.08942 13491 ft 362 kts 327°
2026-04-28 13:44 28.78606 48.07504 12715 ft 357 kts 332°
2026-04-28 13:44 28.80828 48.06258 11939 ft 352 kts 334°
2026-04-28 13:44 28.83025 48.05156 11318 ft 343 kts 336°
2026-04-28 13:45 28.85187 48.04135 10970 ft 327 kts 337°
2026-04-28 13:45 28.87250 48.03183 10666 ft 311 kts 337°
2026-04-28 13:45 28.89218 48.02280 10362 ft 297 kts 337°
2026-04-28 13:45 28.91093 48.01417 10059 ft 284 kts 337°
2026-04-28 13:46 28.92777 48.00642 9772 ft 273 kts 337°
2026-04-28 13:46 28.94487 47.99852 9478 ft 263 kts 337°
2026-04-28 13:46 28.96174 47.99074 9173 ft 262 kts 337°
2026-04-28 13:46 28.97872 47.98287 8868 ft 262 kts 337°
2026-04-28 13:47 28.99555 47.97505 8560 ft 259 kts 337°
2026-04-28 13:47 29.01226 47.96736 8274 ft 258 kts 337°
2026-04-28 13:47 29.02873 47.95971 7831 ft 258 kts 337°
2026-04-28 13:47 29.04530 47.95194 7385 ft 255 kts 336°
2026-04-28 13:48 29.06143 47.94389 6942 ft 252 kts 335°
2026-04-28 13:48 29.07747 47.93565 6485 ft 252 kts 335°
2026-04-28 13:48 29.09343 47.92745 6033 ft 250 kts 335°
2026-04-28 13:48 29.10931 47.91934 5580 ft 247 kts 335°
2026-04-28 13:49 29.12487 47.91149 5344 ft 246 kts 336°
2026-04-28 13:49 29.14061 47.90360 5087 ft 249 kts 335°
2026-04-28 13:49 29.15647 47.89556 4661 ft 246 kts 335°
2026-04-28 13:49 29.17200 47.88768 4185 ft 245 kts 335°
2026-04-28 13:50 29.18754 47.87976 3789 ft 241 kts 335°
2026-04-28 13:50 29.20247 47.87219 3607 ft 228 kts 335°
2026-04-28 13:50 29.21657 47.86505 3450 ft 214 kts 335°
2026-04-28 13:50 29.22966 47.85844 3293 ft 201 kts 335°
2026-04-28 13:51 29.24227 47.85206 3292 ft 201 kts 335°
2026-04-28 13:51 29.25503 47.84559 3286 ft 198 kts 335°
2026-04-28 13:51 29.26758 47.83924 3288 ft 199 kts 335°
2026-04-28 13:51 29.28026 47.83280 3288 ft 199 kts 335°
2026-04-28 13:52 29.29296 47.82634 3289 ft 199 kts 335°
2026-04-28 13:52 29.30561 47.81986 3288 ft 199 kts 335°
2026-04-28 13:52 29.31823 47.81338 3289 ft 199 kts 335°
2026-04-28 13:52 29.33085 47.80689 3288 ft 199 kts 335°
2026-04-28 13:53 29.34348 47.80041 3288 ft 198 kts 335°
2026-04-28 13:53 29.35642 47.79574 3297 ft 199 kts 351°
2026-04-28 13:53 29.37014 47.79735 3295 ft 202 kts 25°
2026-04-28 13:53 29.38135 47.80714 3270 ft 205 kts 43°
2026-04-28 13:54 29.39156 47.81852 3093 ft 203 kts 44°
2026-04-28 13:54 29.40160 47.82980 2886 ft 202 kts 44°
2026-04-28 13:54 29.40965 47.84264 2714 ft 201 kts 73°
2026-04-28 13:54 29.40955 47.85858 2688 ft 203 kts 112°
2026-04-28 13:55 29.40119 47.87103 2692 ft 200 kts 149°
2026-04-28 13:55 29.38851 47.87722 2683 ft 198 kts 165°
2026-04-28 13:55 29.37575 47.88141 2680 ft 181 kts 166°
2026-04-28 13:55 29.36418 47.88497 2680 ft 162 kts 166°
2026-04-28 13:56 29.35378 47.88820 2683 ft 152 kts 166°
2026-04-28 13:56 29.34353 47.89144 2684 ft 154 kts 166°
2026-04-28 13:56 29.33329 47.89479 2686 ft 152 kts 165°
2026-04-28 13:56 29.32654 47.89704 2686 ft 151 kts 165°
2026-04-28 13:57 29.31638 47.90045 2663 ft 152 kts 165°
2026-04-28 13:57 29.30281 47.90501 2370 ft 152 kts 165°
2026-04-28 13:57 29.29607 47.90739 2156 ft 148 kts 163°
2026-04-28 13:57 29.28646 47.91142 1731 ft 149 kts 160°
2026-04-28 13:58 29.27714 47.91595 1412 ft 143 kts 158°
2026-04-28 13:58 29.26818 47.92056 1097 ft 139 kts 158°
2026-04-28 13:58 29.25950 47.92500 809 ft 136 kts 158°
2026-04-28 13:58 29.25109 47.92952 679 ft 135 kts 155°
2026-04-28 13:59 29.24248 47.93418 522 ft 136 kts 156°
2026-04-28 13:59 29.23393 47.93876 349 ft 135 kts 156°
2026-04-28 13:59 29.22548 47.94327 237 ft 133 kts 155°
2026-04-28 13:59 29.21841 47.94712 216 ft 76 kts 155°
2026-04-28 14:00 29.21464 47.94916 215 ft 56 kts 157°
2026-04-28 14:00 29.21116 47.95093 212 ft 53 kts 156°
2026-04-28 14:00 29.20793 47.95279 215 ft 51 kts 157°
2026-04-28 14:00 29.20488 47.95443 214 ft 46 kts 158°